Погода в Ярмуте

Канада     43°50′18″N   66°07′06″W
темп.,
°C
ветер,
м/с
пор.,
м/с
влажн.,
%
обл.,
%
осадки,
мм/ч
давл.,
гПа
погр.,
м
17 апреля, сб
сб1700:00+4всв71692100 6.2 10031194
03:00+4в81395100 6.8 1001710
06:00+4юв36920 0.0 1001184
09:00+5всв5987100 0.0 1002357
12:00+3в71295100 2.9 1002637
15:00+6в578798 3.6 1001647
18:00+6св4585100 0.3 1001559
21:00+5с4791100 0.4 1002381
18 апреля, вс
вс1800:00+5ссз4795100 0.3 1001643
03:00+2ссз51297100 5.4 1001581
06:00+3ссз61097100 1.8 1001709
09:00+3ссз61097100 2.1 1003681
12:00+5ссз6888100 0.1 1004662
15:00+5сз61090100 0.1 1004684
18:00+5сз6990100 0.1 10051007
21:00+5сз4991100 0.1 1006620
19 апреля, пн
пн1900:00+5зсз4794100 0.0 1007385
03:00+5зсз5989100 0.1 1006392
06:00+6зсз51085100 0.1 1007429
09:00+7зсз598366 0.1 1008466
12:00+9зсз58635 0.0 1009974
15:00+10з58643 0.0 1009857
18:00+9з58716 0.0 1009531
21:00+7з51380100 0.0 1010403
20 апреля, вт
вт2000:00+7з5138017 0.0 1011365
03:00+6з511885 0.0 1011251
06:00+6зсз49944 0.0 1012176
09:00+9з47765 0.0 1013298
12:00+12зюз59635 0.0 1014772
15:00+11зюз71465100 0.0 1014856
18:00+10зюз6147394 0.0 1015481
21:00+8зюз51481100 0.0 1016257
21 апреля, ср
ср2100:00+7юз513865 0.0 1016235
03:00+7юз399197 0.0 1016215
06:00+7ю389099 0.0 1016224
09:00+8ю488587 0.0 1016211
12:00+11ю51177100 0.0 1015344
15:00+11ююв7137960 0.0 1012402
18:00+11юв71679100 0.0 1008523
21:00+10ююв91994100 1.1 1003641